EW8072 Weather Reports


time (UTC)temp
F
wind
direction
speed
knots
gust
knots
rain 1hr
in
rain 24hr
in
rain mn
in
humidity
%
barometer
mb
20220930171521 73 98 3.5 6.1 0.00 0.00 0.00 34 1047.7
20220930170020 73 75 3.5 7.0 0.00 0.00 0.00 34 1048.0
20220930164520 73 124 2.6 7.0 0.00 0.00 0.00 35 1048.2
20220930163050 73 78 3.5 8.7 0.00 0.00 0.00 34 1048.2
20220930161605 73 79 5.2 8.7 0.00 0.00 0.00 34 1048.2
20220930160044 73 149 0.0 5.2 0.00 0.00 0.00 35 1048.1
20220930154548 73 114 3.5 7.8 0.00 0.00 0.00 34 1048.1
20220930153020 72 146 2.6 5.2 0.00 0.00 0.00 36 1048.2
20220930151532 71 138 2.6 5.2 0.00 0.00 0.00 37 1048.2
20220930150008 67 120 0.0 1.7 0.00 0.00 0.00 42 1048.2
20220930144556 67 114 0.0 1.7 0.00 0.00 0.00 42 1048.2
20220930143033 64 65 0.0 0.9 0.00 0.00 0.00 46 1048.2
20220930141543 63 75 0.0 1.7 0.00 0.00 0.00 46 1048.1
20220930140038 63 339 0.0 0.0 0.00 0.00 0.00 45 1047.9
20220930134529 0 0.0 0.0 0.00 0.00 0.00 1047.8
20220930133154 0 0.0 0.0 0.00 0.00 0.00 1047.9
20220930131511 0 0.0 0.0 0.00 0.00 0.00 1047.7
20220930130038 0 0.0 0.0 0.00 0.00 0.00 1047.7
20220930123057 0 0.0 0.0 0.00 0.00 0.00 1047.7
20220930120100 0 0.0 0.0 0.00 0.00 0.00 1047.7
20220930120002 0 0.0 0.0 0.00 0.00 0.00 1047.7
20220930114550 0 0.0 0.0 0.00 0.00 0.00 1047.8
20220930111545 0 0.0 0.0 0.00 0.00 0.00 1047.9
20220930104516 0 0.0 0.0 0.00 0.00 0.00 1048.0
20220930103059 0 0.0 0.0 0.00 0.00 0.00 1048.1
20220930100007 60 224 0.0 0.0 0.00 0.00 0.00 46 1048.1
20220930094509 61 224 0.0 0.0 0.00 0.00 0.00 44 1048.1
20220930093044 61 224 0.0 0.0 0.00 0.00 0.00 44 1048.1
20220930091553 61 224 0.0 0.9 0.00 0.00 0.00 44 1048.1
20220930090047 61 257 0.0 0.0 0.00 0.00 0.00 46 1048.0
20220930084559 61 257 0.0 0.9 0.00 0.00 0.00 46 1048.0
20220930083102 60 281 0.0 0.0 0.00 0.00 0.00 46 1048.1
20220930081529 60 281 0.0 0.0 0.00 0.00 0.00 47 1048.1
20220930080027 61 281 0.0 0.0 0.00 0.00 0.00 46 1048.0
20220930074523 62 281 0.0 0.9 0.00 0.00 0.00 44 1048.1
20220930073011 62 296 0.0 0.9 0.00 0.00 0.00 43 1048.1
20220930071637 63 296 0.0 0.0 0.00 0.00 0.00 41 1048.3
20220930070107 64 323 0.0 0.0 0.00 0.00 0.00 40 1048.3
20220930064600 64 323 0.0 0.0 0.00 0.00 0.00 40 1048.4
20220930063031 64 323 0.0 0.0 0.00 0.00 0.00 40 1048.2
20220930061533 64 323 0.0 0.0 0.00 0.00 0.00 41 1048.3
20220930060025 65 323 0.0 0.0 0.00 0.00 0.00 40 1048.3
20220930054522 66 323 0.0 0.0 0.00 0.00 0.00 39 1048.3
20220930053057 66 322 0.0 0.0 0.00 0.00 0.00 38 1048.3
20220930051551 67 322 0.0 0.0 0.00 0.00 0.00 37 1048.4
20220930050058 68 322 0.0 0.0 0.00 0.00 0.00 35 1048.5
20220930044547 68 322 0.0 0.0 0.00 0.00 0.00 34 1048.4
20220930043033 69 49 0.0 0.0 0.00 0.00 0.00 32 1048.4
20220930041527 70 49 0.0 0.9 0.00 0.00 0.00 32 1048.4
20220930040021 71 49 0.9 5.2 0.00 0.00 0.00 30 1048.5
20220930034542 73 121 0.0 1.7 0.00 0.00 0.00 28 1048.3
20220930033006 73 142 0.9 2.6 0.00 0.00 0.00 28 1048.3
20220930031506 74 147 0.0 1.7 0.00 0.00 0.00 28 1048.2
20220930030004 74 159 0.0 2.6 0.00 0.00 0.00 27 1048.1
20220930024556 75 166 0.9 3.5 0.00 0.00 0.00 27 1048.0
20220930023044 75 141 0.9 2.6 0.00 0.00 0.00 26 1047.9
20220930021648 75 148 0.0 1.7 0.00 0.00 0.00 26 1047.9
20220930020101 76 135 0.9 4.3 0.00 0.00 0.00 25 1047.7
20220930014531 76 125 0.0 2.6 0.00 0.00 0.00 24 1047.5
20220930013008 77 132 0.9 5.2 0.00 0.00 0.00 24 1047.3
20220930011509 77 116 0.9 3.5 0.00 0.00 0.00 24 1047.1
20220930010011 78 159 0.9 5.2 0.00 0.00 0.00 23 1047.2
20220930004521 79 103 1.7 7.0 0.00 0.00 0.00 22 1047.2
20220930003042 79 145 2.6 9.6 0.00 0.00 0.00 22 1047.2
20220930001534 80 90 1.7 6.1 0.00 0.00 0.00 22 1047.1
20220930000052 81 75 4.3 9.6 0.00 0.00 0.00 22 1047.1
20220929234528 81 101 4.3 7.8 0.00 0.00 0.00 21 1047.1
20220929233026 81 324 0.9 6.1 0.00 0.00 0.00 21 1047.1
20220929231517 81 86 1.7 9.6 0.00 0.00 0.00 22 1047.3
20220929230034 81 152 3.5 6.1 0.00 0.00 0.00 21 1047.4
20220929224507 81 92 3.5 8.7 0.00 0.00 0.00 22 1047.4
20220929223038 81 92 0.9 6.1 0.00 0.00 0.00 22 1047.7
20220929221540 80 91 2.6 8.7 0.00 0.00 0.00 22 1047.9
20220929220027 80 121 3.5 8.7 0.00 0.00 0.00 23 1047.9
20220929214536 81 140 3.5 7.0 0.00 0.00 0.00 23 1048.0
20220929213012 81 142 4.3 11.3 0.00 0.00 0.00 22 1048.3
20220929211634 81 87 1.7 7.0 0.00 0.00 0.00 22 1048.3
20220929211502 81 59 1.7 7.0 0.00 0.00 0.00 23 1048.4
20220929210056 81 107 4.3 11.3 0.00 0.00 0.00 22 1048.6
20220929204605 80 85 1.7 7.0 0.00 0.00 0.00 23 1048.9
20220929203041 81 87 4.3 10.4 0.00 0.00 0.00 23 1049.2
20220929201534 80 307 1.7 7.8 0.00 0.00 0.00 23 1049.5
20220929200022 80 116 2.6 6.1 0.00 0.00 0.00 24 1050.0
20220929194530 79 96 7.0 12.2 0.00 0.00 0.00 23 1050.4
20220929193056 79 87 1.7 5.2 0.00 0.00 0.00 24 1050.6
20220929191550 79 60 6.1 13.9 0.00 0.00 0.00 25 1050.9
20220929190047 79 37 5.2 12.2 0.00 0.00 0.00 25 1051.3
20220929184536 78 4 1.7 5.2 0.00 0.00 0.00 27 1051.6
20220929183018 77 157 5.2 10.4 0.00 0.00 0.00 27 1052.0
20220929181513 77 77 0.9 5.2 0.00 0.00 0.00 28 1052.3
20220929180011 77 155 3.5 7.8 0.00 0.00 0.00 28 1052.6
20220929174504 76 191 2.6 6.1 0.00 0.00 0.00 30 1052.9
20220929173045 75 87 0.0 5.2 0.00 0.00 0.00 31 1053.2